sat.trackr.live / text

‹ back to catalog

STARLINK-30264

NORAD 57534 · 2023-115P

PAYLOAD ACTIVE UNKNOWN

§ Identity

Operator
Country
US
Launch date
2023-08-08
Launch site
AFWTR
Launch vehicle
Mass (kg)
RCS (m²)

Purposes: comms

External: N2YO · Heavens-Above · Gunter

§ Orbital elements

Epoch: 2026-09-20T04:39:31.130784Z

Period
94.27 min
Inclination
43.0055°
Eccentricity
0.0001261
Mean motion
15.27582248 rev/d
Perigee alt
482.2 km
Apogee alt
483.9 km
Semi-major
6,861.2 km
B*
5.1979e-5
RAAN
190.4374°
Arg perigee
250.4136°
Mean anomaly
109.6579°
Rev number
17,510

§ Raw data

STARLINK-302641 57534U 23115P   26263.19411031  .00001169  00000+0  51979-4 0  99962 57534  43.0055 190.4374 0001261 250.4136 109.6579 15.27582248175107

JSON: /api/v1/satellites/57534 · /tle

For live sub-satellite position, see the globe view (requires WebGL).

§ Visibility from observer

Set your observer location to see the next 7 days of passes ≥ 10°. The values pass through the URL so the page stays shareable.

No JS? Fill the form by hand. The geolocation button needs JavaScript.